STARLINK-34326, 64221

Orbit data source: Space-Track

STARLINK-34326, 64221 is a payload satellite owned by SpaceX/Seattle (US) in LEO that was launched on Thu, 05 Jun 2025 UTC via an FALCON 9 launch vehicle from the Air Force Western Test Range (AFWTR). Payload-class satellites include a variety of spacecraft equipped with specific instruments for various scientific and technological missions. These include communications satellites like Starlink; space stations such as the ISS; scientific satellites like the Hubble; Earth observation satellites from companies like Planet Labs, Umbra, and HawkEye 360; GPS; miniature CubeSats for education and research; and military/defense satellites.

Loading next visibility...
Identifier
64221, 2025-117U
Orbit
LEO
Last TLE update
3 hours ago
Origin
Manufacturer
SpaceX/Seattle
Mission
Operational spacecraft
Bus & Motor
STARLINK V2MO, Unknown motor
Mass
575 kg wet, ~530 kg dry
Launch date (UTC)
2025-06-05 (2 weeks ago)
Launch vehicle
FALCON 9
Launch site
Air Force Western Test Range (AFWTR)
Object type
Payload
Rocket body
Debris
Shape & HBR
Unknown
Radar Cross Section
Large (>1 m²)

Expand to show TLE details & history

TLE from 3 hours ago
0 STARLINK-34326
1 64221U 25117U   25170.16670139 -.01561030  00000-0 -15468-1 0  9992
2 64221  53.1600 189.2133 0001349  94.4073 163.9592 15.68074345  3060
Epoch: 2025-06-19T04:00Z
TLE epoch observation values (Epoch: 2025-06-19T04:00:03Z)
Latitude
-51.78108°
Longitude
112.66086°
Altitude
383.22 km
Speed
7.679 km/s
True Right ascension
05h 21m 14s
True Declination
-51° 36' 16"
Sunlit
Object was in daylight at epoch
Visualization orbit readout
Latitude
-22.15193°
Longitude
-156.78424°
Altitude
372.497 km
Speed
7.686 km/s
Apparent Right ascension
09h 10m 36s
Apparent Declination
-37° 04' 53"
Sunlit
Object is in daylight
Visualization observer readout
Local Sidereal Time
18:13:05
Azimuth
260.179° W
Elevation
-55.508°
Doppler factor
1
Orbital elements
Apogee altitude
365.582 km
Perigee altitude
363.762 km
Semi-major axis
6,742.809 km
Eccentricity
0.00013
Inclination
53.16°
RAAN
189.2133°
Arg. of periapsis
94.4073°
True anomaly
Unknown
Mean anomaly
163.9592°
Eccentric anomaly
Unknown
Mean motion
3.91996 °/min
Orbital period
91.84 mins
BSTAR
-0.015468
Loading maneuver chart data...
Loading SW <> Apogee altitude chart data...
Loading historical data...
Loading historical data...
Loading historical data...
Loading historical data...
Loading historical data...
Loading historical data...
Loading historical data...

STARLINK-34326 Visibility forecast

Observer location: undefined°, undefined°

Span
Click to sort rows by Start time (UTC) header in descending order
Start Az.
Max El. time (UTC)
Max El. Az.
Max El.
End time (UTC)
End Az.
4 mins2025-06-19 11:04:27.127Z309.483° NW2025-06-19 11:05:27.127Z300.65° NW44.78°2025-06-19 11:08:27.127Z131.376° SE
4 mins2025-06-20 03:35:27.127Z200.494° SSW2025-06-20 03:36:27.127Z170.624° S34.516°2025-06-20 03:39:27.127Z61.975° ENE
|